This is the latest recevied weather packets stored in our database for station/object KD2SIG. If no packets are shown the sender has not sent any weather packets the latest 10 day(s).
| Time | Temp. | Humidity | Pressure | Rain* | Wind** | Luminosity | Snow |
|---|---|---|---|---|---|---|---|
| 1777943884 | 13.33° C | 69% | 1004.3 hPa | 0 mm | - | 0 W/m² | - |
| 1777943581 | 13.89° C | 68% | 1004 hPa | 0 mm | - | 0 W/m² | - |
| 1777943277 | 13.89° C | 68% | 1004.1 hPa | 0 mm | - | 0 W/m² | - |
| 1777942973 | 13.89° C | 66% | 1004.2 hPa | 0 mm | - | 0 W/m² | - |
| 1777942669 | 14.44° C | 65% | 1004 hPa | 0 mm | - | 0 W/m² | - |
| 1777942367 | 15° C | 64% | 1004.2 hPa | 0 mm | - | 0 W/m² | - |
| 1777942064 | 15° C | 64% | 1004 hPa | 0 mm | - | 0 W/m² | - |
| 1777941759 | 15.56° C | 61% | 1003.9 hPa | 0 mm | - | 0 W/m² | - |
| 1777941457 | 15.56° C | 61% | 1003.8 hPa | 0 mm | - | 0 W/m² | - |
| 1777941155 | 15.56° C | 61% | 1003.7 hPa | 0 mm | - | 0 W/m² | - |
| 1777940851 | 16.11° C | 59% | 1003.9 hPa | 0 mm | - | 0 W/m² | - |
| 1777940548 | 16.11° C | 59% | 1003.8 hPa | 0 mm | - | 0 W/m² | - |
| 1777940246 | 16.67° C | 59% | 1003.8 hPa | 0 mm | - | 0 W/m² | - |
| 1777939943 | 16.67° C | 58% | 1003.8 hPa | 0 mm | - | 0 W/m² | - |
| 1777939640 | 17.22° C | 58% | 1003.9 hPa | 0 mm | - | 1 W/m² | - |
| 1777939338 | 17.78° C | 57% | 1003.7 hPa | 0 mm | - | 2 W/m² | - |
| 1777939034 | 17.78° C | 56% | 1003.6 hPa | 0 mm | - | 5 W/m² | - |
| 1777938730 | 18.33° C | 55% | 1003.6 hPa | 0 mm | - | 7 W/m² | - |
| 1777938428 | 18.89° C | 53% | 1003.6 hPa | 0 mm | - | 10 W/m² | - |
| 1777938125 | 18.89° C | 53% | 1003.4 hPa | 0 mm | - | 14 W/m² | - |
| 1777937821 | 18.89° C | 51% | 1003.6 hPa | 0 mm | - | 19 W/m² | - |
| 1777937517 | 19.44° C | 52% | 1003.7 hPa | 0 mm | - | 22 W/m² | - |
| 1777937214 | 19.44° C | 52% | 1003.7 hPa | 0 mm | - | 26 W/m² | - |
| 1777936911 | 20° C | 51% | 1003.6 hPa | 0 mm | - | 31 W/m² | - |
| 1777936608 | 20° C | 51% | 1003.6 hPa | 0 mm | - | 38 W/m² | - |
* Rain latest hour (hover to see other rain measurements)
** Current wind speed in m/s (hover to see current wind gust speed)